Tracking 20942 objects as of 4-Jul-2020
HD Live streaming from Space Station
objects crossing your sky now

BREEZE-M DEB

Track BREEZE-M DEB now!


NORAD ID: 44596
Int'l Code: 2011-021D
Perigee: 7,529.4 km
Apogee: 34,201.2 km
Inclination: 13.8 °
Period: 745.6 minutes
Semi major axis: 27236 km
RCS: Unknown
Launch date: May 20, 2011
Source: Commonwealth of Independent States (former USSR) (CIS)
Launch site: TYURATAM MISSILE AND SPACE COMPLEX (TTMTR)

Note: This is SATELLITE DEBRIS
aabbcc
Your satellite tracking list
Your tracking list is empty




NASA's NSSDC Master Catalog

Two Line Element Set (TLE):
1 44596U 11021D   20186.26151167 -.00000119  00000-0  00000+0 0  9990
2 44596  13.7546 171.7767 4896363 328.8439  27.3442  1.93143568818445
Source of the keplerian elements: AFSPC